[[{"header":{"parameterUnit":"m.s-1","parameterCategory":1,"la1":30.2991,"la2":30.254,"lo1":-89.0895,"lo2":-89.0444,"dy":0.0017,"dx":0.0017,"nx":28,"ny":28,"refTime":"2023-10-04T21:00:00:Z","depth":0,"parameterNumber":2,"parameterNumberName":"U-component_of_WINDS"},"data":[0,0,0,0,0,0,0,0,0,0,0,0,0,0,0,0,0,0,0,0,0,0,0,0,0,0,0,0,0,0,0,0,0,0,0,0,0,0,0,0,0,0,0,0,0,0,0,0,0,0,0,0,0,0,0,0,0,0,-5.8275,-5.8274,0,-5.8242,-5.8241,-5.8241,-5.8109,-5.8106,-5.8103,-5.81,-5.8068,-5.807,-5.8072,0,0,0,0,0,0,0,0,0,0,0,0,0,-5.8227,-5.8229,-5.8275,-5.8274,-5.8274,-5.8242,-5.8241,-5.8241,-5.8109,-5.8105,-5.8102,-5.8098,-5.8067,-5.807,-5.8072,0,0,0,0,0,0,0,0,0,0,0,0,0,-5.8227,-5.823,-5.8275,-5.8204,-5.8198,-5.8242,-5.8241,-5.8241,-5.811,-5.8105,-5.8101,-5.8096,-5.8067,-5.807,-5.8072,-5.8183,0,0,-5.8082,-5.8083,0,0,0,0,0,0,0,0,-5.8227,-5.8229,-5.8215,-5.8209,-5.8202,-5.8174,-5.8213,-5.8221,-5.8111,-5.8143,-5.81,-5.8094,-5.8107,-5.8107,-5.8111,-5.8181,-5.818,-5.8082,-5.8084,-5.8085,-5.8086,0,0,0,0,0,0,0,-5.8227,-5.8229,-5.8261,-5.8215,-5.8207,-5.8176,-5.817,-5.8214,-5.8151,-5.814,-5.813,-5.8128,-5.8103,-5.8108,-5.8109,-5.8179,-5.8082,-5.8085,-5.8086,-5.8088,-5.834,-5.8345,0,0,0,0,0,0,-5.8237,-5.823,-5.8263,-5.8261,-5.8203,-5.818,-5.8174,-5.8188,-5.8151,-5.814,-5.8132,-5.8122,-5.8105,-5.8106,-5.8107,-5.8233,-5.8085,-5.8088,-5.809,-5.8335,-5.8341,-5.8346,0,0,0,0,0,0,-5.8236,-5.8241,-5.8264,-5.8243,-5.8243,-5.8186,-5.8202,-5.819,-5.8194,-5.8145,-5.8133,-5.8149,-5.8102,-5.8103,-5.8165,-5.823,-5.8089,-5.8092,-5.8329,-5.8337,-5.8344,-5.8487,0,0,0,0,0,0,-5.8235,-5.8241,-5.8281,-5.8245,-5.8245,-5.8321,-5.8206,-5.8192,-5.82,-5.8186,-5.8157,-5.8148,-5.8098,-5.8161,-5.8168,-5.8232,-5.8094,-5.8323,-5.8333,-5.8341,-5.8476,-5.8498,-5.8517,0,0,0,0,0,-5.8234,-5.8323,-5.8284,-5.8289,-5.8294,-5.8325,-5.8325,-5.8266,-5.8206,-5.8246,-5.8214,-5.8149,-5.8223,-5.8169,-5.8175,-5.8241,-5.8319,-5.833,-5.8341,-5.8466,-5.8494,-5.8516,0,0,0,0,0,0,-5.8369,-5.8317,-5.8273,-5.8353,-5.8345,-5.8303,-5.8351,-5.8296,-5.8305,-5.8292,-5.8219,-5.8214,-5.8287,-5.827,-5.8211,-5.8346,-5.826,-5.8273,-5.8353,-5.8379,-5.8399,-5.84,-5.8097,0,0,0,0,0,-5.8408,-5.8438,-5.8391,-5.8466,-5.8464,-5.8409,-5.8421,-5.8376,-5.8364,-5.836,-5.8333,-5.8325,-5.8347,-5.8362,-5.838,-5.8474,-5.8466,-5.8523,-5.8544,-5.8561,-5.8572,-5.8621,-5.8646,-5.8382,-5.8382,-5.8382,0,0,-5.8489,-5.8464,-5.8487,-5.8492,-5.848,-5.8513,-5.8407,-5.8445,-5.8469,-5.8366,-5.8422,-5.8403,-5.839,-5.8469,-5.8502,-5.8457,-5.8644,-5.8575,-5.8589,-5.859,-5.8635,-5.866,-5.8682,-5.839,-5.8389,-5.8387,0,0,-5.8652,-5.8637,-5.8697,-5.8688,-5.8672,-5.8636,-5.8651,-5.8618,-5.8601,-5.8657,-5.858,-5.8609,-5.8648,-5.8641,-5.8643,-5.8809,-5.8748,-5.8817,-5.8923,-5.8972,-5.8993,-5.9011,-5.9069,-5.909,-5.8829,-5.8829,-5.883,0,-5.8754,-5.8799,-5.8735,-5.8779,-5.8784,-5.8694,-5.8755,-5.875,-5.8741,-5.8747,-5.8698,-5.8745,-5.873,-5.8806,-5.8847,-5.8852,-5.8867,-5.8818,-5.8995,-5.9012,-5.9028,-5.9082,-5.9105,-5.8837,-5.8837,-5.8836,-5.8835,0,-5.8925,-5.8958,-5.9009,-5.9002,-5.9014,-5.9067,-5.9012,-5.9032,-5.8988,-5.8957,-5.9016,-5.8996,-5.9007,-5.9023,-5.898,-5.9094,-5.9066,-5.9008,-5.8918,-5.9063,-5.9112,-5.9133,-5.8849,-5.8846,-5.8844,-5.8842,0,0,-5.9167,-5.9127,-5.9147,-5.9143,-5.9121,-5.9145,-5.9196,-5.9207,-5.9225,-5.9223,-5.9263,-5.93,-5.9246,-5.9248,-5.9205,-5.9248,-5.938,-5.9184,-5.9182,-5.9219,-5.9504,-5.9546,-5.9571,-5.9342,-5.9345,-5.9348,-5.9504,0,-5.9321,-5.9402,-5.9348,-5.9438,-5.9468,-5.9385,-5.9429,-5.9421,-5.9395,-5.9418,-5.939,-5.9416,-5.9344,-5.9345,-5.9384,-5.9355,-5.9436,-5.9344,-5.9378,-5.9379,-5.938,-5.9597,-5.9641,-5.9789,-5.9523,-5.9526,-5.9529,0,-5.9509,-5.9516,-5.9609,-5.9582,-5.9593,-5.9633,-5.964,-5.9663,-5.9653,-5.9631,-5.9637,-5.9583,-5.9631,-5.9547,-5.9613,-5.9552,-5.9564,-5.9553,-5.9557,-5.9555,-5.946,-5.9599,-5.9835,-5.9856,-5.9559,-5.9557,-5.9555,0,-5.9675,-5.9708,-5.9767,-5.9767,-5.9738,-5.9768,-5.9757,-5.9743,-5.9754,-5.9761,-5.9768,-5.9781,-5.9788,-5.98,-5.9752,-5.9696,-5.9825,-5.9737,-5.9808,-5.9809,-5.9835,-5.9834,-6.0074,-5.9849,-5.9848,-5.9848,-5.9847,0,-5.985,-5.991,-5.9841,-5.9878,-5.9943,-5.9883,-5.995,-5.9931,-5.992,-5.9952,-5.9883,-5.9915,-5.9851,-5.9877,-5.9841,-5.9901,-5.9905,-5.9889,-5.9878,-5.9893,-5.9895,-5.9897,-5.9885,-5.9854,-5.9852,-5.9851,-5.985,0,-6.0043,-6.0,-6.0059,-6.0028,-6.0022,-6.0071,-6.0044,-6.0078,-6.0049,-6.0091,-6.0098,-6.0053,-6.008,-6.0035,-6.0057,-6.0033,-6.0116,-6.0091,-6.0119,-6.011,-6.0183,-6.0176,-6.043,-6.046,-6.0219,-6.0221,-6.0223,0,-6.0156,-6.02,-6.0174,-6.0191,-6.0184,-6.0212,-6.0223,-6.0167,-6.0181,-6.0176,-6.021,-6.0232,-6.0246,-6.0294,-6.0264,-6.0281,-6.0254,-6.0343,-6.0256,-6.0271,-6.0253,-6.025,-6.0254,-6.0359,-6.0362,-6.0364,-6.0366,0,-6.036,-6.0338,-6.0355,-6.0368,-6.0383,-6.039,-6.0391,-6.0409,-6.0351,-6.0371,-6.0398,-6.041,-6.0433,-6.0456,-6.0466,-6.0456,-6.0402,-6.0395,-6.0412,-6.0426,-6.0439,-6.0431,-6.0164,-6.0388,-6.0386,-6.0384,-6.0383,-6.0382,-6.0515,-6.055,-6.0538,-6.0561,-6.0557,-6.0561,-6.0591,-6.0567,-6.0589,-6.0602,-6.057,-6.0605,-6.0597,-6.0605,-6.0602,-6.063,-6.0591,-6.0616,-6.0622,-6.0628,-6.0639,-6.0438,-6.0632,-6.0631,-6.0631,-6.063,-6.063,0,-6.0714,-6.0702,-6.0725,-6.073,-6.0749,-6.0698,-6.0698,-6.0717,-6.0749,-6.0746,-6.0762,-6.0795,-6.0817,-6.0791,-6.0809,-6.0836,-6.0812,-6.0843,-6.0838,-6.0837,-6.0673,-6.0656,-6.0862,-6.0862,-6.0862,-6.0862,-6.0862,-6.0862,-6.0819,-6.0876,-6.0853,-6.0909,-6.0897,-6.0931,-6.0936,-6.094,-6.0937,-6.0976,-6.0995,-6.0977,-6.0965,-6.0982,-6.1001,-6.0993,-6.1002,-6.1041,-6.1024,-6.0871,-6.0848,-6.0826,-6.0809,-6.1044,-6.1045,-6.1185,-6.1186,-6.1187]},{"header":{"parameterUnit":"m.s-1","parameterCategory":1,"la1":30.2991,"la2":30.254,"lo1":-89.0895,"lo2":-89.0444,"dy":0.0017,"dx":0.0017,"nx":28,"ny":28,"refTime":"2023-10-04T21:00:00:Z","depth":0,"parameterNumber":3,"parameterNumberName":"V-component_of_WINDS"},"data":[0,0,0,0,0,0,0,0,0,0,0,0,0,0,0,0,0,0,0,0,0,0,0,0,0,0,0,0,0,0,0,0,0,0,0,0,0,0,0,0,0,0,0,0,0,0,0,0,0,0,0,0,0,0,0,0,0,0,1.5701,1.5701,0,1.5722,1.5722,1.5723,1.5804,1.5806,1.5808,1.5809,1.5824,1.5822,1.5821,0,0,0,0,0,0,0,0,0,0,0,0,0,1.5726,1.5725,1.5701,1.5701,1.5702,1.5722,1.5722,1.5723,1.5804,1.5806,1.5808,1.581,1.5824,1.5823,1.5821,0,0,0,0,0,0,0,0,0,0,0,0,0,1.5728,1.5725,1.5701,1.5745,1.5749,1.5722,1.5722,1.5723,1.5803,1.5806,1.5809,1.5811,1.5825,1.5823,1.5821,1.5751,0,0,1.5814,1.5813,0,0,0,0,0,0,0,0,1.5727,1.5727,1.5738,1.5742,1.5746,1.5764,1.5737,1.5732,1.5802,1.5782,1.5809,1.5813,1.5801,1.5801,1.5799,1.5752,1.5753,1.5814,1.5813,1.5812,1.5811,0,0,0,0,0,0,0,1.5727,1.5726,1.5709,1.5738,1.5743,1.5761,1.5765,1.5736,1.5775,1.5784,1.579,1.5792,1.5804,1.58,1.5799,1.5753,1.5814,1.5812,1.5811,1.581,1.5652,1.5649,0,0,0,0,0,0,1.5722,1.5725,1.5709,1.571,1.5744,1.5759,1.5763,1.5755,1.5776,1.5782,1.5789,1.5796,1.5802,1.5802,1.58,1.5721,1.5812,1.581,1.5809,1.5655,1.5651,1.5648,0,0,0,0,0,0,1.5722,1.5719,1.5708,1.5719,1.5719,1.5755,1.5746,1.5754,1.5751,1.578,1.5787,1.5779,1.5805,1.5803,1.5764,1.5722,1.5809,1.5807,1.5659,1.5654,1.565,1.5561,0,0,0,0,0,0,1.5722,1.5719,1.5694,1.5718,1.5718,1.5672,1.5744,1.5752,1.5748,1.5756,1.5772,1.5777,1.5807,1.5766,1.5762,1.5721,1.5806,1.5662,1.5656,1.5651,1.5568,1.5554,1.5543,0,0,0,0,0,1.5723,1.5666,1.5692,1.569,1.5688,1.5669,1.5669,1.5706,1.5744,1.5719,1.5738,1.5777,1.5728,1.5762,1.5757,1.5715,1.5665,1.5658,1.5652,1.5574,1.5557,1.5543,0,0,0,0,0,0,1.5633,1.567,1.5699,1.5649,1.5656,1.5683,1.5652,1.5687,1.5681,1.5689,1.5733,1.5736,1.569,1.5699,1.5736,1.565,1.5703,1.5695,1.5646,1.563,1.5618,1.5615,1.5804,0,0,0,0,0,1.5608,1.5591,1.5624,1.5577,1.5579,1.5615,1.5608,1.5637,1.5644,1.5646,1.5663,1.5667,1.5653,1.5642,1.5631,1.5571,1.5575,1.554,1.5527,1.5517,1.5508,1.5478,1.5462,1.5626,1.5626,1.5626,0,0,1.5554,1.5573,1.5559,1.5559,1.5568,1.5548,1.5616,1.5592,1.5578,1.5642,1.5607,1.5619,1.5626,1.5577,1.5555,1.5582,1.5465,1.5508,1.55,1.5497,1.5469,1.5454,1.544,1.5622,1.5623,1.5623,0,0,1.5447,1.546,1.5423,1.5431,1.5444,1.5469,1.546,1.5483,1.5494,1.546,1.5508,1.5491,1.5466,1.5469,1.5468,1.5366,1.5401,1.5361,1.5293,1.5263,1.525,1.5239,1.5201,1.5188,1.5353,1.5353,1.5353,0,1.5378,1.5353,1.5398,1.5372,1.537,1.5432,1.5393,1.5398,1.5405,1.5402,1.5434,1.5405,1.5414,1.5366,1.5342,1.5339,1.5329,1.5358,1.5249,1.5238,1.5228,1.5193,1.5179,1.5348,1.5348,1.5349,1.5349,0,1.5268,1.5249,1.5217,1.5227,1.5222,1.5189,1.5228,1.5217,1.5247,1.5268,1.5233,1.5247,1.524,1.5231,1.5258,1.5187,1.5204,1.5241,1.5295,1.5206,1.5174,1.5161,1.534,1.5342,1.5344,1.5345,0,0,1.5101,1.5139,1.5126,1.5131,1.5152,1.5138,1.5108,1.5105,1.5094,1.5098,1.5074,1.5053,1.5089,1.5087,1.5116,1.5089,1.5007,1.513,1.5131,1.5106,1.4929,1.4899,1.4883,1.5032,1.503,1.5028,1.4928,0,1.4999,1.4952,1.4993,1.4938,1.4922,1.4981,1.4955,1.4964,1.4984,1.4972,1.4993,1.4977,1.5026,1.5025,1.5002,1.5022,1.4972,1.503,1.5007,1.5006,1.5002,1.4866,1.4835,1.4739,1.4916,1.4913,1.4912,0,1.4872,1.4874,1.4818,1.4844,1.4838,1.4815,1.4815,1.4803,1.4815,1.4831,1.4831,1.4868,1.484,1.4895,1.4856,1.4895,1.4889,1.4897,1.4894,1.4892,1.4952,1.4858,1.471,1.4695,1.4893,1.4894,1.4896,0,1.4755,1.4743,1.4709,1.4712,1.4741,1.4723,1.4734,1.4749,1.4745,1.4745,1.4743,1.4738,1.4735,1.4731,1.4765,1.4802,1.4722,1.478,1.4733,1.4732,1.4711,1.4711,1.4557,1.4709,1.471,1.471,1.471,0,1.4635,1.4598,1.4657,1.4635,1.4596,1.4643,1.4602,1.462,1.4633,1.4615,1.4665,1.4647,1.4694,1.468,1.4707,1.4671,1.4669,1.468,1.4687,1.4675,1.4673,1.4669,1.4676,1.4706,1.4707,1.4708,1.4708,0,1.4497,1.4535,1.4501,1.4533,1.4541,1.451,1.4537,1.4517,1.4542,1.4518,1.4516,1.4553,1.454,1.4575,1.4565,1.4584,1.4531,1.455,1.4527,1.4532,1.4483,1.4487,1.432,1.4301,1.4466,1.4465,1.4463,0,1.4417,1.439,1.4421,1.4414,1.4423,1.4411,1.4408,1.4454,1.4448,1.4461,1.4439,1.4431,1.4427,1.4402,1.4427,1.4421,1.4439,1.4381,1.4438,1.4426,1.4437,1.4437,1.4434,1.4368,1.4366,1.4364,1.4363,0,1.4271,1.4292,1.4286,1.4288,1.4283,1.4286,1.4292,1.4283,1.4332,1.4323,1.4312,1.4308,1.4301,1.4292,1.4292,1.4301,1.4339,1.4346,1.4334,1.432,1.4308,1.4313,1.4494,1.4349,1.435,1.4351,1.4352,1.4352,1.4158,1.4138,1.4157,1.415,1.416,1.4165,1.4149,1.4173,1.4165,1.4165,1.4192,1.4175,1.4189,1.4193,1.4199,1.4185,1.4212,1.4195,1.4191,1.4186,1.4177,1.4312,1.4186,1.4186,1.4187,1.4187,1.4187,0,1.4014,1.403,1.4023,1.4032,1.4026,1.4067,1.4076,1.4068,1.4053,1.4063,1.4059,1.4046,1.4038,1.4064,1.4059,1.4043,1.406,1.404,1.4041,1.4042,1.4154,1.4164,1.4026,1.4026,1.4026,1.4026,1.4026,1.4026,1.3938,1.3907,1.393,1.3903,1.392,1.3905,1.3907,1.3912,1.3921,1.3905,1.3899,1.3918,1.3934,1.3932,1.3926,1.3934,1.3929,1.3902,1.3915,1.4019,1.4034,1.4049,1.4059,1.3901,1.39,1.3804,1.3803,1.3803]}]]